This is the latest recevied weather packets stored in our database for station/object N5CSU. If no packets are shown the sender has not sent any weather packets the latest 10 day(s).
| Time | Temp. | Humidity | Pressure | Rain* | Wind** | Luminosity | Snow |
|---|---|---|---|---|---|---|---|
| 1777211655 | 22.22° C | 98% | 1009.9 hPa | 0 mm | - | 11 W/m² | - |
| 1777211350 | 22.22° C | 98% | 1009.9 hPa | 0 mm | - | 9 W/m² | - |
| 1777211046 | 22.22° C | 98% | 1010 hPa | 0 mm | - | 11 W/m² | - |
| 1777210743 | 22.22° C | 98% | 1010 hPa | 0 mm | - | 10 W/m² | - |
| 1777210436 | 22.22° C | 99% | 1009.8 hPa | 0 mm | - | 10 W/m² | - |
| 1777210133 | 22.22° C | 99% | 1009.8 hPa | 0 mm | - | 10 W/m² | - |
| 1777209829 | 22.22° C | 99% | 1009.8 hPa | 0 mm | - | 10 W/m² | - |
| 1777209525 | 22.22° C | 99% | 1009.7 hPa | 0 mm | - | 12 W/m² | - |
| 1777209221 | 21.67° C | 99% | 1009.9 hPa | 0 mm | - | 10 W/m² | - |
| 1777208918 | 21.67° C | 99% | 1009.7 hPa | 0 mm | - | 5 W/m² | - |
| 1777208614 | 21.67° C | 99% | 1009.6 hPa | 0 mm | - | 4 W/m² | - |
| 1777208311 | 21.67° C | 99% | 1009.5 hPa | 0 mm | - | 4 W/m² | - |
| 1777208007 | 21.67° C | 99% | 1009.5 hPa | 0 mm | - | 7 W/m² | - |
| 1777207698 | 21.67° C | 99% | 1009.4 hPa | 0 mm | - | 7 W/m² | - |
| 1777207393 | 21.67° C | 99% | 1009.4 hPa | 0 mm | - | 6 W/m² | - |
| 1777207092 | 21.67° C | 99% | 1009.2 hPa | 0 mm | - | 4 W/m² | - |
| 1777206788 | 21.67° C | 99% | 1009.1 hPa | 0 mm | - | 5 W/m² | - |
| 1777206488 | 21.11° C | 99% | 1008.9 hPa | 0 mm | - | 4 W/m² | - |
| 1777206183 | 21.11° C | 99% | 1008.9 hPa | 0 mm | - | 3 W/m² | - |
| 1777205879 | 21.11° C | 99% | 1008.4 hPa | 0 mm | - | 3 W/m² | - |
| 1777205575 | 21.11° C | 99% | 1008.3 hPa | 0 mm | - | 1 W/m² | - |
| 1777205273 | 21.11° C | 99% | 1008.1 hPa | 0 mm | - | 1 W/m² | - |
| 1777204968 | 21.11° C | 99% | 1008.1 hPa | 0 mm | - | 1 W/m² | - |
| 1777204663 | 21.11° C | 99% | 1008.2 hPa | 0 mm | - | 0 W/m² | - |
| 1777204359 | 20.56° C | 99% | 1007.8 hPa | 0 mm | - | 0 W/m² | - |
* Rain latest hour (hover to see other rain measurements)
** Current wind speed in m/s (hover to see current wind gust speed)